loading
|
Showing default

COSMOS 89, 1587

Orbit data source: Space-Track

COSMOS 89, 1587 is a payload satellite owned by OKB-10 (CIS) in LEO that was launched on Sat, 18 Sep 1965 UTC via a KOSMOS 65S3 launch vehicle from the Tyuratam Missile And Space Complex (TTMTR). Payloads include a variety of satellites, spacecraft, and rockets equipped with specific instruments for various scientific and technological missions. These include communications satellites like Starlink; space stations such as the ISS; scientific satellites like the Hubble; Earth observation satellites from companies like Planet Labs, Umbra, and HawkEye 360; GPS; miniature CubeSats for education and research; and military/defense satellites.

Loading next visibility...
Loading greatness...
COSMOS 89 details
Identifier
1587, 1965-073D
Orbit
LEO
Last TLE update21 hours ago
Origin
Flag of CISOKB-10 (CIS)
ManufacturerOKB-10
MissionDefense Communications
Bus & MotorSTRELA-1 11F610, Unknown motor
Mass50 kg wet, 50 kg dry
Launch date (UTC)
1965-09-18 (59 years ago)
Launch vehicle
KOSMOS 65S3
Launch site
Tyuratam Missile And Space Complex (TTMTR)
Object type
Payload
Rocket body
Debris
Shape & HBRPoly, 0.8 m
Radar Cross Section0.731 m², Medium (>0.1 m² and < 1m²)

Expand to show TLE details & history

TLE from 21 hours ago
0 COSMOS 89
1 01587U 65073D   24280.85087349 -.00000056  00000-0  26152-3 0  9993
2 01587  56.0601 340.7190 0166803 211.8407 147.2324 12.38977113672226
Epoch: 2024-10-06T20:25Z
Definitive object data (Epoch: 2024-10-06T20:25:15.469Z)
Latitude-0.00003°
Longitude18.41762°
Altitude1,623.273 km
Speed7.01 km/s
True Right ascension22h 42m 52s
True Declination0° 00' 00"
Sunlit
Object was in full shadow at TLE epoch
Predictive object data (real-time)
Latitude-43.33694°
Longitude-23.0874°
Altitude1,527.025 km
Speed7.102 km/s
Apparent Right ascension21h 35m 05s
Apparent Declination-44° 53' 16"
Sunlit
Object is in daylight
Predictive observer data (real-time)
Local Sidereal Time11:32:02
Azimuth112.675° SE
Elevation-67.973°
Doppler factor1
Orbital elements
Apogee1,642.355 km
Perigee1,379.177 km
Semi-major axis7,888.903 km
Eccentricity0.0166803
Inclination56.0601°
RAAN340.719°
Arg. of periapsis211.8407°
True anomaly148.24903°
Mean anomaly147.2324°
Eccentric anomaly147.74249°
Mean motion3.09755 °/min
BSTAR0.00026152
Period116.22 mins
No data available

COSMOS 89 Visibility forecast

Observer location: 39.9160978°, -105.1181434

COSMOS 89 is not visible in the next 10 days
Span
Click to sort rows by Start time (UTC) header in descending order
Start Az.
Max El. time (UTC)
Max El. Az.
Max El.
End time (UTC)
End Az.